#timestamp,LO_Frequency,Hit,StdDev 
1567465215.6,286046999.8,N
1567465235.4,286047002.8,N
1567465255.2,286047002.8,N
1567465275.1,286047002.1,N
1567465276.0,286047002.1,N
1567465295.8,286047002.1,N
1567465315.6,286047002.0,N
1567465335.5,286047002.1,N
1567465355.3,286047001.7,N
1567465375.2,286047001.5,N
1567465395.9,286047002.5,N
1567465415.7,286047002.0,N
1567465435.6,286047001.3,N
1567465455.4,286047001.8,N
1567465475.3,286047002.6,N
1567465495.1,286046999.8,N
1567465496.0,286046999.8,N
1567465515.8,286047000.3,N
1567465535.7,286047002.1,N
1567465555.5,286047002.3,N
1567465575.3,286047002.6,N
1567465595.2,286047001.4,N
1567465615.0,286047001.9,N
1567465615.9,286047001.9,N
1567465635.8,286047001.9,N
1567465655.6,286047001.4,N
1567465675.4,286047002.1,N
1567465695.3,286047001.3,N
1567465715.1,286047001.4,N
1567465735.9,286047002.1,N
1567465755.7,286047001.8,N
1567465775.5,286047001.8,N
1567465795.4,286047001.7,N
1567465815.2,286047001.7,N
1567465835.0,286047001.8,N
1567465835.9,286047001.8,N
1567465855.8,286047001.4,N
1567465875.6,286047002.0,N
1567465895.5,286047002.2,Y
1567465915.3,286047000.0,P
1567465935.1,286046999.9,N
1567465955.9,286047000.2,N
1567465975.7,286047000.2,N
1567465995.6,286046999.8,N
1567466015.4,286047002.6,Y
1567466035.2,286047000.2,P
1567466055.1,286047000.0,N
1567466056.0,286047000.0,N
1567466075.8,286047002.8,Y
1567466095.7,286047000.6,P
1567466115.5,286047000.0,N
1567466135.3,286047001.6,P
1567466155.2,286047000.4,N
1567466175.0,286046999.9,N
1567466175.9,286046999.9,N
1567466195.7,286047000.0,N
1567466215.6,286047000.2,N
1567466235.4,286047000.4,N
1567466255.3,286047000.1,N
1567466275.1,286047000.2,N
1567466276.0,286047000.2,N
1567466295.8,286047000.2,N
1567466315.7,286047002.5,Y
1567466335.5,286047002.1,P
1567466355.4,286047001.8,N
1567466375.2,286047002.5,P
1567466395.0,286047002.0,N
1567466395.9,286047002.0,N
1567466415.8,286047002.6,Y
1567466435.6,286047001.2,P
1567466455.5,286046998.8,P
1567466475.3,286046998.8,N
1567466495.1,286046999.3,N
1567466515.9,286047001.1,N
1567466535.7,286047000.6,N
1567466555.5,286046999.0,N
1567466575.4,286046999.4,N
1567466595.2,286046999.5,N
1567466615.1,286046998.6,N
1567466616.0,286046998.6,N
1567466635.8,286046998.6,N
1567466655.6,286046999.1,N
1567466675.5,286046998.5,N
1567466695.3,286046999.5,N
1567466715.2,286046999.0,N
1567466735.9,286046998.4,N
1567466755.7,286047000.7,N
1567466775.6,286046998.5,N
1567466795.4,286046998.3,N
1567466815.2,286046998.4,N
1567466835.1,286046998.3,N
1567466836.0,286046998.3,N
1567466855.8,286046998.8,N
1567466875.7,286046999.3,N
1567466895.5,286046999.1,N
1567466915.3,286046999.5,N
1567466935.2,286046998.5,N
1567466955.0,286046998.3,N
1567466955.9,286046998.3,N
1567466975.8,286046999.1,N
1567466995.6,286046997.3,Y
1567467015.4,286046996.5,P
1567467035.3,286046996.9,N
1567467055.1,286046996.5,P
1567467075.9,286046999.4,N
1567467095.7,286046996.9,N
1567467115.5,286046996.7,N
1567467135.4,286046997.1,N
1567467155.2,286046995.5,Y
1567467175.1,286046996.8,P
1567467176.0,286046996.8,P
1567467195.8,286046996.6,P
1567467215.6,286046997.2,Y
1567467235.5,286046998.3,P
1567467255.3,286046998.7,N
1567467275.1,286046998.3,N
1567467295.9,286047000.0,N
1567467315.7,286046999.7,N
1567467335.6,286047000.4,N
1567467355.4,286047000.5,N
1567467375.2,286046999.8,N
1567467395.1,286046999.8,N
1567467396.0,286046999.8,N
1567467415.8,286047000.0,N
1567467435.7,286047000.1,N
1567467455.5,286047000.0,N
1567467475.3,286047000.6,N
1567467495.2,286047001.2,N
1567467515.0,286046999.6,N
1567467515.9,286046999.6,N
1567467535.8,286046999.5,N
1567467555.6,286046997.2,N
1567467575.4,286046996.6,Y
1567467595.3,286046998.4,P
1567467615.1,286046998.8,N
1567467635.8,286046999.4,N
1567467655.7,286046998.9,N
1567467675.5,286046998.6,Y
1567467695.4,286047000.4,P
1567467715.2,286047000.4,N
1567467735.0,286047000.5,N
1567467735.9,286047000.5,N
1567467755.8,286047000.3,N
1567467775.6,286047000.3,N
1567467795.5,286047000.6,N
1567467815.3,286047000.5,N
1567467835.1,286047000.9,N
1567467855.9,286047000.7,N
1567467875.7,286047001.2,N
1567467895.6,286047000.4,N
1567467915.4,286047001.0,N
1567467935.2,286047000.5,N
1567467955.1,286047000.1,N
1567467956.0,286047000.1,N
1567467975.8,286046999.8,N
1567467995.6,286047000.5,N
1567468015.5,286046999.8,N
1567468035.3,286047002.7,Y
1567468055.2,286047000.5,P
1567468075.0,286047000.1,N
1567468075.9,286047000.1,N
1567468095.7,286047002.4,Y
1567468115.6,286047000.4,P
1567468135.4,286047001.0,P
1567468155.3,286047000.4,N
1567468175.1,286047002.7,Y
1567468195.8,286047002.3,P
1567468215.7,286047002.6,N
1567468235.5,286047002.6,N
1567468255.4,286047000.1,N
1567468275.2,286046999.9,N
1567468295.0,286047000.0,N
1567468295.9,286047000.0,N
1567468315.8,286047002.2,N
1567468335.6,286047000.0,N
1567468355.5,286046999.9,N
1567468375.3,286047001.9,N
1567468395.1,286047002.3,N
1567468415.9,286047002.1,N
1567468435.7,286047002.4,N
1567468455.5,286047002.6,N
1567468475.4,286047004.0,Y
1567468495.2,286047002.6,P
1567468515.1,286047002.2,P
1567468516.0,286047002.2,P
1567468535.8,286047001.5,Y
1567468555.6,286046999.9,P
1567468575.5,286047000.4,N
1567468595.3,286047001.0,N
1567468615.1,286047000.8,N
1567468635.9,286046999.8,N
1567468655.7,286047000.1,N
1567468675.6,286047002.6,Y
1567468695.4,286047000.2,P
1567468715.2,286047000.1,N
1567468735.1,286047000.1,N
1567468736.0,286047000.1,N
1567468755.8,286047000.6,Y
1567468775.7,286047001.0,P
1567468795.5,286047000.8,N
